• In Romania
  • List of Countries
  • For 7 days
  • Water Temperature
  • Satellite Maps
  • Weather Map
  • Weather Widgets
  • user-avatar
    Login

    Hourly Weather Minsk

    Today, 22 September, Saturday

    Time Temperature Precipitation Wind Pressure Humidity
    00:00 +17°C° 0 mm 5 mps 740 mmHg 66%
    01:00 +17°C° 0 mm 5 mps 740 mmHg 67%
    02:00 +16°C° 0 mm 5 mps 739 mmHg 67%
    03:00 +16°C° 0 mm 5 mps 739 mmHg 68%
    04:00 +16°C° 0 mm 5 mps 738 mmHg 69%
    05:00 +16°C° 0 mm 5 mps 738 mmHg 70%
    06:00 +16°C° 0 mm 5 mps 738 mmHg 69%
    07:00 +16°C° 0 mm 5 mps 738 mmHg 69%
    08:00 +16°C° 0 mm 6 mps 738 mmHg 68%
    09:00 +16°C° 0.3 mm 6 mps 739 mmHg 72%
    10:00 +16°C° 0.3 mm 5 mps 739 mmHg 76%
    11:00 +15°C° 0.3 mm 5 mps 739 mmHg 79%
    12:00 +15°C° 0.3 mm 5 mps 740 mmHg 81%
    13:00 +14°C° 0.3 mm 4 mps 740 mmHg 83%
    14:00 +13°C° 0.3 mm 3 mps 741 mmHg 84%
    15:00 +12°C° 0.5 mm 3 mps 741 mmHg 84%
    16:00 +12°C° 0.5 mm 3 mps 741 mmHg 85%
    17:00 +12°C° 0.5 mm 3 mps 741 mmHg 85%
    18:00 +11°C° 0.1 mm 3 mps 741 mmHg 85%
    19:00 +11°C° 0.1 mm 3 mps 741 mmHg 85%
    20:00 +11°C° 0.1 mm 3 mps 741 mmHg 85%
    21:00 +10°C° 0 mm 3 mps 741 mmHg 86%
    22:00 +10°C° 0 mm 3 mps 741 mmHg 87%
    23:00 +9°C° 0 mm 3 mps 741 mmHg 88%

    Tomorrow, 23 September, Sunday

    Time Temperature Precipitation Wind Pressure Humidity
    00:00 +9°C° 0 mm 3 mps 741 mmHg 89%
    01:00 +8°C° 0 mm 3 mps 741 mmHg 90%
    02:00 +8°C° 0 mm 3 mps 740 mmHg 92%
    03:00 +7°C° 0 mm 3 mps 740 mmHg 92%
    04:00 +7°C° 0 mm 3 mps 740 mmHg 92%
    05:00 +7°C° 0 mm 3 mps 740 mmHg 92%
    06:00 +8°C° 0 mm 3 mps 740 mmHg 89%
    07:00 +7°C° 0 mm 4 mps 740 mmHg 86%
    08:00 +8°C° 0 mm 4 mps 740 mmHg 83%
    09:00 +10°C° 0 mm 5 mps 740 mmHg 75%
    10:00 +11°C° 0 mm 6 mps 740 mmHg 68%
    11:00 +14°C° 0 mm 6 mps 740 mmHg 60%
    12:00 +14°C° 0.1 mm 6 mps 740 mmHg 57%
    13:00 +14°C° 0.1 mm 6 mps 740 mmHg 54%
    14:00 +15°C° 0.1 mm 7 mps 739 mmHg 51%
    15:00 +14°C° 0 mm 5 mps 739 mmHg 55%
    16:00 +14°C° 0 mm 4 mps 739 mmHg 58%
    17:00 +13°C° 0 mm 3 mps 739 mmHg 61%
    18:00 +12°C° 0 mm 3 mps 739 mmHg 66%
    19:00 +10°C° 0 mm 3 mps 739 mmHg 70%
    20:00 +9°C° 0 mm 3 mps 739 mmHg 75%
    21:00 +9°C° 0 mm 3 mps 739 mmHg 78%
    22:00 +8°C° 0 mm 3 mps 739 mmHg 81%
    23:00 +8°C° 0 mm 3 mps 738 mmHg 84%

    Day after tomorrow, 24 September, Monday

    Time Temperature Precipitation Wind Pressure Humidity
    00:00 +8°C° 0 mm 3 mps 738 mmHg 86%
    01:00 +8°C° 0 mm 2 mps 737 mmHg 87%
    02:00 +8°C° 0 mm 2 mps 737 mmHg 88%
    03:00 +8°C° 0.5 mm 2 mps 736 mmHg 89%
    04:00 +8°C° 0.5 mm 3 mps 735 mmHg 90%
    05:00 +8°C° 0.5 mm 3 mps 734 mmHg 91%
    06:00 +8°C° 1.9 mm 3 mps 733 mmHg 92%
    07:00 +7°C° 1.9 mm 4 mps 732 mmHg 93%
    08:00 +7°C° 1.9 mm 5 mps 731 mmHg 94%
    09:00 +7°C° 3 mm 5 mps 729 mmHg 94%
    10:00 +7°C° 3 mm 5 mps 728 mmHg 94%
    11:00 +7°C° 3 mm 5 mps 727 mmHg 94%
    12:00 +7°C° 3.6 mm 6 mps 726 mmHg 94%
    13:00 +6°C° 3.6 mm 7 mps 726 mmHg 93%
    14:00 +6°C° 3.6 mm 8 mps 725 mmHg 92%
    15:00 +6°C° 1.4 mm 8 mps 726 mmHg 90%
    16:00 +6°C° 1.4 mm 9 mps 726 mmHg 89%
    17:00 +6°C° 1.4 mm 10 mps 727 mmHg 87%
    18:00 +6°C° 0.3 mm 9 mps 728 mmHg 87%
    19:00 +6°C° 0.3 mm 8 mps 729 mmHg 87%
    20:00 +6°C° 0.3 mm 8 mps 730 mmHg 87%
    21:00 +6°C° 0.1 mm 8 mps 731 mmHg 87%
    22:00 +6°C° 0.1 mm 8 mps 732 mmHg 87%
    23:00 +6°C° 0.1 mm 8 mps 733 mmHg 87%

    25 September, Tuesday

    Time Temperature Precipitation Wind Pressure Humidity
    00:00 +5°C° 0.1 mm 8 mps 734 mmHg 85%
    01:00 +5°C° 0.1 mm 8 mps 735 mmHg 84%
    02:00 +5°C° 0.1 mm 8 mps 736 mmHg 82%
    03:00 +4°C° 0 mm 8 mps 736 mmHg 82%
    04:00 +4°C° 0 mm 8 mps 737 mmHg 82%
    05:00 +2°C° 0 mm 8 mps 738 mmHg 82%
    06:00 +4°C° 0 mm 8 mps 739 mmHg 80%
    07:00 +4°C° 0 mm 8 mps 739 mmHg 78%
    08:00 +4°C° 0 mm 8 mps 740 mmHg 76%
    09:00 +5°C° 0 mm 8 mps 740 mmHg 71%
    10:00 +6°C° 0 mm 8 mps 741 mmHg 67%
    11:00 +6°C° 0 mm 8 mps 742 mmHg 62%
    12:00 +7°C° 0.1 mm 8 mps 742 mmHg 60%
    13:00 +7°C° 0.1 mm 8 mps 742 mmHg 59%
    14:00 +9°C° 0.1 mm 8 mps 742 mmHg 57%
    15:00 +8°C° 0.1 mm 7 mps 742 mmHg 59%
    16:00 +8°C° 0.1 mm 6 mps 743 mmHg 61%
    17:00 +8°C° 0.1 mm 4 mps 743 mmHg 62%
    18:00 +7°C° 0 mm 4 mps 742 mmHg 65%
    19:00 +6°C° 0 mm 4 mps 742 mmHg 67%
    20:00 +5°C° 0 mm 4 mps 742 mmHg 69%
    21:00 +5°C° 0.7 mm 5 mps 741 mmHg 72%
    22:00 +5°C° 0.7 mm 5 mps 741 mmHg 75%
    23:00 +6°C° 0.7 mm 5 mps 741 mmHg 77%

    26 September, Wednesday

    Time Temperature Precipitation Wind Pressure Humidity
    00:00 +6°C° 0.3 mm 5 mps 740 mmHg 80%
    01:00 +5°C° 0.3 mm 5 mps 740 mmHg 83%
    02:00 +5°C° 0.3 mm 5 mps 739 mmHg 86%
    03:00 +6°C° 0.1 mm 5 mps 740 mmHg 88%
    04:00 +6°C° 0.1 mm 5 mps 740 mmHg 89%
    05:00 +6°C° 0.1 mm 4 mps 740 mmHg 90%
    06:00 +6°C° 0.1 mm 4 mps 741 mmHg 90%
    07:00 +6°C° 0.1 mm 4 mps 742 mmHg 90%
    08:00 +6°C° 0.1 mm 4 mps 742 mmHg 89%
    09:00 +7°C° 0 mm 4 mps 743 mmHg 84%
    10:00 +8°C° 0 mm 4 mps 744 mmHg 78%
    11:00 +10°C° 0 mm 4 mps 745 mmHg 73%
    12:00 +10°C° 0 mm 4 mps 746 mmHg 67%
    13:00 +11°C° 0 mm 4 mps 746 mmHg 61%
    14:00 +11°C° 0 mm 4 mps 747 mmHg 55%
    15:00 +11°C° 0 mm 3 mps 747 mmHg 58%
    16:00 +10°C° 0 mm 3 mps 748 mmHg 61%
    17:00 +10°C° 0 mm 2 mps 748 mmHg 64%
    18:00 +8°C° 0 mm 2 mps 748 mmHg 68%
    19:00 +7°C° 0 mm 2 mps 749 mmHg 71%
    20:00 +6°C° 0 mm 2 mps 749 mmHg 74%
    21:00 +6°C° 0 mm 2 mps 749 mmHg 76%
    22:00 +6°C° 0 mm 2 mps 749 mmHg 77%
    23:00 +5°C° 0 mm 2 mps 749 mmHg 79%

    27 September, Thursday

    Time Temperature Precipitation Wind Pressure Humidity
    00:00 +4°C° 0 mm 3 mps 749 mmHg 79%
    01:00 +4°C° 0 mm 3 mps 749 mmHg 79%
    02:00 +5°C° 0 mm 4 mps 748 mmHg 79%
    03:00 +5°C° 0 mm 5 mps 748 mmHg 78%
    04:00 +6°C° 0 mm 5 mps 747 mmHg 78%
    05:00 +5°C° 0 mm 6 mps 747 mmHg 77%
    06:00 +5°C° 0.5 mm 6 mps 746 mmHg 81%
    07:00 +6°C° 0.5 mm 7 mps 745 mmHg 84%
    08:00 +6°C° 0.5 mm 7 mps 745 mmHg 88%
    09:00 +6°C° 1 mm 7 mps 745 mmHg 88%
    10:00 +7°C° 1 mm 8 mps 744 mmHg 88%
    11:00 +7°C° 1 mm 8 mps 744 mmHg 89%
    12:00 +9°C° 0.2 mm 8 mps 743 mmHg 88%
    13:00 +9°C° 0.2 mm 8 mps 743 mmHg 86%
    14:00 +9°C° 0.2 mm 7 mps 742 mmHg 85%
    15:00 +10°C° 0 mm 7 mps 742 mmHg 83%
    16:00 +11°C° 0 mm 6 mps 741 mmHg 80%
    17:00 +13°C° 0 mm 6 mps 741 mmHg 77%
    18:00 +11°C° 0 mm 6 mps 741 mmHg 78%
    19:00 +10°C° 0 mm 6 mps 740 mmHg 79%
    20:00 +10°C° 0 mm 6 mps 740 mmHg 80%
    21:00 +10°C° 0 mm 6 mps 739 mmHg 80%
    22:00 +9°C° 0 mm 6 mps 738 mmHg 80%
    23:00 +9°C° 0 mm 6 mps 738 mmHg 80%
    Show more